Time,TemperatureF,DewpointF,PressureIn,WindDirection,WindDirectionDegrees,WindSpeedMPH,WindSpeedGustMPH,Humidity,HourlyPrecipIn,Conditions,Clouds,dailyrainin,SoftwareType,DateUTC
2013-04-04 00:22:00,49.0,48.0,30.02,SSW,196,8.0,-999.0,96,-99.99,,,-99.99,,2013-04-04 07:22:00,
2013-04-04 00:32:00,49.0,48.0,30.02,SSW,196,8.0,-999.0,96,-99.99,,,-99.99,,2013-04-04 07:32:00,
2013-04-04 00:43:00,49.0,48.0,30.02,SSW,196,8.0,-999.0,96,-99.99,,,-99.99,,2013-04-04 07:43:00,
2013-04-04 00:52:00,49.0,48.0,30.02,SSW,196,8.0,-999.0,96,-99.99,,,-99.99,,2013-04-04 07:52:00,
2013-04-04 01:01:00,49.0,48.0,30.02,SSW,196,8.0,-999.0,96,-99.99,,,-99.99,,2013-04-04 08:01:00,
2013-04-04 02:22:00,49.0,48.0,30.01,WSW,257,2.0,-999.0,96,-99.99,,,-99.99,,2013-04-04 09:22:00,
2013-04-04 02:34:00,49.0,48.0,30.01,WSW,257,2.0,-999.0,96,-99.99,,,-99.99,,2013-04-04 09:34:00,
2013-04-04 02:43:00,49.0,48.0,30.01,WSW,257,2.0,-999.0,96,-99.99,,,-99.99,,2013-04-04 09:43:00,
2013-04-04 02:53:00,49.0,48.0,30.01,WSW,257,2.0,-999.0,96,-99.99,,,-99.99,,2013-04-04 09:53:00,
2013-04-04 03:03:00,49.0,48.0,30.01,WSW,257,2.0,-999.0,96,-99.99,,,-99.99,,2013-04-04 10:03:00,
2013-04-04 04:23:00,50.0,49.0,30.00,South,187,1.0,-999.0,96,-99.99,,,-99.99,,2013-04-04 11:23:00,
2013-04-04 04:33:00,50.0,49.0,30.00,South,187,1.0,-999.0,96,-99.99,,,-99.99,,2013-04-04 11:33:00,
2013-04-04 04:43:00,50.0,49.0,30.00,South,187,1.0,-999.0,96,-99.99,,,-99.99,,2013-04-04 11:43:00,
2013-04-04 04:53:00,50.0,49.0,30.00,South,187,1.0,-999.0,96,-99.99,,,-99.99,,2013-04-04 11:53:00,
2013-04-04 05:02:00,50.0,49.0,30.00,South,187,1.0,-999.0,96,-99.99,,,-99.99,,2013-04-04 12:02:00,
2013-04-04 06:22:00,52.0,51.0,29.99,SE,142,2.0,-999.0,97,-99.99,,,-99.99,,2013-04-04 13:22:00,
2013-04-04 06:33:00,52.0,51.0,29.99,SE,142,2.0,-999.0,97,-99.99,,,-99.99,,2013-04-04 13:33:00,
2013-04-04 06:43:00,52.0,51.0,29.99,SE,142,2.0,-999.0,97,-99.99,,,-99.99,,2013-04-04 13:43:00,
2013-04-04 06:52:00,52.0,51.0,29.99,SE,142,2.0,-999.0,97,-99.99,,,-99.99,,2013-04-04 13:52:00,
2013-04-04 07:02:00,52.0,51.0,29.99,SE,142,2.0,-999.0,97,-99.99,,,-99.99,,2013-04-04 14:02:00,
2013-04-04 08:23:00,54.0,53.0,30.02,SSE,154,2.0,-999.0,97,-99.99,,,-99.99,,2013-04-04 15:23:00,
2013-04-04 08:34:00,54.0,53.0,30.02,SSE,154,2.0,-999.0,97,-99.99,,,-99.99,,2013-04-04 15:34:00,
2013-04-04 08:43:00,54.0,53.0,30.02,SSE,154,2.0,-999.0,97,-99.99,,,-99.99,,2013-04-04 15:43:00,
2013-04-04 08:53:00,54.0,53.0,30.02,SSE,154,2.0,-999.0,97,-99.99,,,-99.99,,2013-04-04 15:53:00,
2013-04-04 09:02:00,54.0,53.0,30.02,SSE,154,2.0,-999.0,97,-99.99,,,-99.99,,2013-04-04 16:02:00,
2013-04-04 10:23:00,56.0,55.0,30.06,South,169,5.0,-999.0,97,-99.99,,,-99.99,,2013-04-04 17:23:00,
2013-04-04 10:33:00,56.0,55.0,30.06,South,169,5.0,-999.0,97,-99.99,,,-99.99,,2013-04-04 17:33:00,
2013-04-04 10:43:00,56.0,55.0,30.06,South,169,5.0,-999.0,97,-99.99,,,-99.99,,2013-04-04 17:43:00,
2013-04-04 10:52:00,56.0,55.0,30.06,South,169,5.0,-999.0,97,-99.99,,,-99.99,,2013-04-04 17:52:00,
2013-04-04 11:02:00,56.0,55.0,30.06,South,169,5.0,-999.0,97,-99.99,,,-99.99,,2013-04-04 18:02:00,
2013-04-04 12:22:00,60.0,56.0,30.08,South,190,7.0,-999.0,88,-99.99,,,-99.99,,2013-04-04 19:22:00,
2013-04-04 12:33:00,60.0,56.0,30.08,South,190,7.0,-999.0,88,-99.99,,,-99.99,,2013-04-04 19:33:00,
2013-04-04 12:43:00,60.0,56.0,30.08,South,190,7.0,-999.0,88,-99.99,,,-99.99,,2013-04-04 19:43:00,
2013-04-04 12:52:00,60.0,56.0,30.08,South,190,7.0,-999.0,88,-99.99,,,-99.99,,2013-04-04 19:52:00,
2013-04-04 13:02:00,60.0,56.0,30.08,South,190,7.0,-999.0,88,-99.99,,,-99.99,,2013-04-04 20:02:00,
2013-04-04 14:22:00,61.0,56.0,30.08,South,187,6.0,-999.0,83,-99.99,,,-99.99,,2013-04-04 21:22:00,
2013-04-04 14:33:00,61.0,56.0,30.08,South,187,6.0,-999.0,83,-99.99,,,-99.99,,2013-04-04 21:33:00,
2013-04-04 14:43:00,61.0,56.0,30.08,South,187,6.0,-999.0,83,-99.99,,,-99.99,,2013-04-04 21:43:00,
2013-04-04 14:53:00,61.0,56.0,30.08,South,187,6.0,-999.0,83,-99.99,,,-99.99,,2013-04-04 21:53:00,
2013-04-04 15:02:00,61.0,56.0,30.08,South,187,6.0,-999.0,83,-99.99,,,-99.99,,2013-04-04 22:02:00,
2013-04-04 16:22:00,58.0,54.0,30.08,SW,224,7.0,-999.0,88,-99.99,,,-99.99,,2013-04-04 23:22:00,
2013-04-04 16:32:00,58.0,54.0,30.08,SW,224,7.0,-999.0,88,-99.99,,,-99.99,,2013-04-04 23:32:00,
2013-04-04 16:42:00,58.0,54.0,30.08,SW,224,7.0,-999.0,88,-99.99,,,-99.99,,2013-04-04 23:42:00,
2013-04-04 16:52:00,58.0,54.0,30.08,SW,224,7.0,-999.0,88,-99.99,,,-99.99,,2013-04-04 23:52:00,
2013-04-04 17:01:00,58.0,54.0,30.08,SW,224,7.0,-999.0,88,-99.99,,,-99.99,,2013-04-05 00:01:00,
2013-04-04 18:22:00,56.0,54.0,30.07,South,188,4.0,-999.0,93,-99.99,,,-99.99,,2013-04-05 01:22:00,
2013-04-04 18:32:00,56.0,54.0,30.07,South,188,4.0,-999.0,93,-99.99,,,-99.99,,2013-04-05 01:32:00,
2013-04-04 18:42:00,56.0,54.0,30.07,South,188,4.0,-999.0,93,-99.99,,,-99.99,,2013-04-05 01:42:00,
2013-04-04 18:53:00,56.0,54.0,30.07,South,188,4.0,-999.0,93,-99.99,,,-99.99,,2013-04-05 01:53:00,
2013-04-04 19:02:00,56.0,54.0,30.07,South,188,4.0,-999.0,93,-99.99,,,-99.99,,2013-04-05 02:02:00,
2013-04-04 20:22:00,54.0,53.0,30.07,SSW,210,6.0,-999.0,95,-99.99,,,-99.99,,2013-04-05 03:22:00,
2013-04-04 20:33:00,54.0,53.0,30.07,SSW,210,6.0,-999.0,95,-99.99,,,-99.99,,2013-04-05 03:33:00,
2013-04-04 20:43:00,54.0,53.0,30.07,SSW,210,6.0,-999.0,95,-99.99,,,-99.99,,2013-04-05 03:43:00,
2013-04-04 20:53:00,54.0,53.0,30.07,SSW,210,6.0,-999.0,95,-99.99,,,-99.99,,2013-04-05 03:53:00,
2013-04-04 21:02:00,54.0,53.0,30.07,SSW,210,6.0,-999.0,95,-99.99,,,-99.99,,2013-04-05 04:02:00,
2013-04-04 22:22:00,54.0,53.0,30.10,SW,225,5.0,-999.0,96,-99.99,,,-99.99,,2013-04-05 05:22:00,
2013-04-04 22:32:00,54.0,53.0,30.10,SW,225,5.0,-999.0,96,-99.99,,,-99.99,,2013-04-05 05:32:00,
2013-04-04 22:42:00,54.0,53.0,30.10,SW,225,5.0,-999.0,96,-99.99,,,-99.99,,2013-04-05 05:42:00,
2013-04-04 22:52:00,54.0,53.0,30.10,SW,225,5.0,-999.0,96,-99.99,,,-99.99,,2013-04-05 05:52:00,
2013-04-04 23:02:00,54.0,53.0,30.10,SW,225,5.0,-999.0,96,-99.99,,,-99.99,,2013-04-05 06:02:00,